[[{"header":{"parameterUnit":"m.s-1","parameterCategory":1,"la1":30.2991,"la2":30.254,"lo1":-89.0895,"lo2":-89.0444,"dy":0.0017,"dx":0.0017,"nx":28,"ny":28,"refTime":"2025-04-30T03:00:00:Z","depth":0,"parameterNumber":2,"parameterNumberName":"U-component_of_WINDS"},"data":[0,0,0,0,0,0,0,0,0,0,0,0,0,0,0,0,0,0,0,0,0,0,0,0,0,0,0,0,0,0,0,0,0,0,0,0,0,0,0,0,0,0,0,0,0,0,0,0,0,0,0,0,0,0,0,0,0,0,-3.7769,-3.7769,0,-3.7783,-3.7783,-3.7783,-3.7723,-3.7721,-3.7719,-3.7718,-3.773,-3.7732,-3.7734,0,0,0,0,0,0,0,0,0,0,0,0,0,-3.769,-3.7691,-3.7769,-3.7769,-3.777,-3.7783,-3.7783,-3.7783,-3.7723,-3.7721,-3.7719,-3.7717,-3.773,-3.7732,-3.7734,0,0,0,0,0,0,0,0,0,0,0,0,0,-3.7716,-3.7692,-3.7769,-3.7741,-3.7739,-3.7783,-3.7783,-3.7783,-3.7724,-3.7721,-3.7718,-3.7716,-3.7729,-3.7732,-3.7735,-3.7806,0,0,-3.7744,-3.7745,0,0,0,0,0,0,0,0,-3.7714,-3.7719,-3.7745,-3.7743,-3.7741,-3.7749,-3.776,-3.7791,-3.7724,-3.7729,-3.7718,-3.7715,-3.7738,-3.774,-3.7749,-3.7806,-3.7807,-3.7744,-3.7746,-3.7747,-3.7748,0,0,0,0,0,0,0,-3.7713,-3.7718,-3.7775,-3.7746,-3.7743,-3.7728,-3.7728,-3.7765,-3.7748,-3.7729,-3.7724,-3.7727,-3.7737,-3.7746,-3.7749,-3.7807,-3.7744,-3.7747,-3.7748,-3.7749,-3.7924,-3.7927,0,0,0,0,0,0,-3.7715,-3.7717,-3.7774,-3.7775,-3.7721,-3.7731,-3.7732,-3.7749,-3.7748,-3.7745,-3.7729,-3.7724,-3.7742,-3.7745,-3.7749,-3.7832,-3.7747,-3.775,-3.7751,-3.7921,-3.7925,-3.7928,0,0,0,0,0,0,-3.7713,-3.7721,-3.7774,-3.7745,-3.775,-3.7735,-3.7754,-3.775,-3.776,-3.7748,-3.7745,-3.7742,-3.774,-3.7745,-3.7792,-3.7831,-3.7751,-3.7754,-3.7918,-3.7922,-3.7926,-3.7998,0,0,0,0,0,0,-3.7711,-3.772,-3.7747,-3.7746,-3.7752,-3.7817,-3.7757,-3.7753,-3.7765,-3.7759,-3.7759,-3.7757,-3.7739,-3.7788,-3.7795,-3.7834,-3.7756,-3.7914,-3.792,-3.7925,-3.7992,-3.8004,-3.8015,0,0,0,0,0,-3.7709,-3.7767,-3.7749,-3.7756,-3.7786,-3.782,-3.7823,-3.7801,-3.7769,-3.7795,-3.7788,-3.7757,-3.7826,-3.7793,-3.7801,-3.7841,-3.7911,-3.7918,-3.7924,-3.7987,-3.8002,-3.8015,0,0,0,0,0,0,-3.7772,-3.7766,-3.7746,-3.7806,-3.7814,-3.7809,-3.7842,-3.7818,-3.7835,-3.7828,-3.78,-3.78,-3.7853,-3.7852,-3.7815,-3.791,-3.7863,-3.7871,-3.7908,-3.7922,-3.7934,-3.7932,-3.7759,0,0,0,0,0,-3.7793,-3.7822,-3.7815,-3.7868,-3.7873,-3.7857,-3.7871,-3.7854,-3.7861,-3.7864,-3.786,-3.7868,-3.7891,-3.7907,-3.7928,-3.7993,-3.7991,-3.8024,-3.8035,-3.8045,-3.8051,-3.8085,-3.81,-3.7949,-3.7949,-3.7949,0,0,-3.7837,-3.7837,-3.7856,-3.7881,-3.7885,-3.7914,-3.786,-3.7894,-3.7916,-3.7869,-3.7913,-3.7911,-3.7918,-3.7974,-3.7999,-3.7975,-3.8093,-3.8053,-3.806,-3.8062,-3.8093,-3.8108,-3.812,-3.7953,-3.7952,-3.7952,0,0,-3.7931,-3.7934,-3.7979,-3.7984,-3.7992,-3.7981,-3.7992,-3.7992,-3.7989,-3.8034,-3.7999,-3.8024,-3.8065,-3.8072,-3.808,-3.8178,-3.815,-3.8186,-3.8245,-3.8278,-3.829,-3.83,-3.8334,-3.8347,-3.8193,-3.8194,-3.8194,0,-3.7983,-3.8027,-3.8004,-3.8041,-3.8052,-3.8012,-3.8057,-3.8064,-3.8077,-3.8086,-3.806,-3.8111,-3.8112,-3.817,-3.8194,-3.8202,-3.8213,-3.8185,-3.829,-3.83,-3.831,-3.8342,-3.8355,-3.8198,-3.8197,-3.8197,-3.8197,0,-3.8091,-3.8123,-3.8158,-3.8173,-3.8188,-3.8229,-3.8212,-3.823,-3.8212,-3.8205,-3.8251,-3.8252,-3.8272,-3.8285,-3.8267,-3.834,-3.8325,-3.8295,-3.8247,-3.8329,-3.8358,-3.8371,-3.8204,-3.8202,-3.8201,-3.82,0,0,-3.8224,-3.8227,-3.824,-3.8247,-3.8253,-3.8276,-3.8315,-3.8336,-3.8352,-3.8364,-3.8395,-3.8431,-3.8404,-3.8414,-3.8397,-3.8426,-3.8503,-3.8392,-3.8392,-3.8412,-3.8583,-3.8605,-3.8619,-3.8485,-3.8488,-3.849,-3.8582,0,-3.8316,-3.8382,-3.8363,-3.843,-3.8458,-3.8421,-3.8455,-3.8462,-3.8457,-3.8479,-3.8473,-3.8499,-3.8461,-3.8467,-3.8495,-3.8488,-3.8537,-3.8481,-3.8513,-3.8515,-3.8511,-3.8635,-3.8658,-3.8745,-3.8594,-3.8596,-3.8597,0,-3.8431,-3.8448,-3.8517,-3.8519,-3.853,-3.8561,-3.8578,-3.8601,-3.8609,-3.8603,-3.8615,-3.8592,-3.8629,-3.8583,-3.8634,-3.8597,-3.8609,-3.8608,-3.8611,-3.8612,-3.856,-3.8638,-3.8772,-3.8785,-3.8615,-3.8614,-3.8613,0,-3.852,-3.856,-3.8606,-3.8613,-3.8617,-3.8639,-3.8642,-3.8647,-3.8661,-3.8676,-3.8685,-3.8705,-3.8715,-3.8731,-3.8714,-3.8682,-3.8768,-3.872,-3.8763,-3.8764,-3.8782,-3.8781,-3.8919,-3.8792,-3.8792,-3.8792,-3.8792,0,-3.8623,-3.8667,-3.8646,-3.8675,-3.8723,-3.8701,-3.8749,-3.8747,-3.8753,-3.878,-3.875,-3.8776,-3.8753,-3.8777,-3.8764,-3.8808,-3.8814,-3.8809,-3.8805,-3.8811,-3.8812,-3.8818,-3.8811,-3.8795,-3.8795,-3.8794,-3.8793,0,-3.873,-3.8718,-3.8766,-3.8766,-3.8767,-3.8803,-3.8802,-3.8829,-3.8821,-3.8856,-3.8863,-3.8852,-3.8879,-3.8864,-3.8891,-3.8883,-3.894,-3.8928,-3.8938,-3.8934,-3.8978,-3.8973,-3.9123,-3.9141,-3.9005,-3.9006,-3.9007,0,-3.8796,-3.8829,-3.8833,-3.8849,-3.8854,-3.8881,-3.8895,-3.8876,-3.8892,-3.8904,-3.8928,-3.8953,-3.8971,-3.9016,-3.901,-3.9031,-3.9019,-3.907,-3.9021,-3.9027,-3.9018,-3.9016,-3.9019,-3.9079,-3.908,-3.9082,-3.9083,0,-3.8915,-3.8907,-3.8929,-3.895,-3.8968,-3.8983,-3.8996,-3.9011,-3.8991,-3.9011,-3.9039,-3.9053,-3.9082,-3.9106,-3.9124,-3.9126,-3.9102,-3.9099,-3.9109,-3.9115,-3.9119,-3.9117,-3.8963,-3.9095,-3.9093,-3.9093,-3.9092,-3.9092,-3.9002,-3.903,-3.9037,-3.9063,-3.907,-3.9083,-3.9108,-3.9104,-3.9127,-3.9149,-3.9136,-3.9168,-3.9175,-3.9198,-3.9203,-3.9228,-3.9207,-3.9223,-3.9227,-3.9231,-3.9236,-3.9117,-3.9231,-3.9231,-3.923,-3.923,-3.923,0,-3.9119,-3.9122,-3.9146,-3.9165,-3.9185,-3.9161,-3.9174,-3.9192,-3.9221,-3.923,-3.9249,-3.9281,-3.9305,-3.9301,-3.9323,-3.9343,-3.9333,-3.935,-3.9347,-3.9348,-3.9254,-3.9242,-3.9358,-3.9358,-3.9358,-3.9358,-3.9358,-3.9358,-3.9182,-3.9227,-3.9221,-3.927,-3.9272,-3.9304,-3.9313,-3.9325,-3.9332,-3.9369,-3.9389,-3.9386,-3.939,-3.9412,-3.9433,-3.9431,-3.944,-3.9462,-3.9456,-3.9367,-3.9355,-3.9343,-3.9331,-3.9464,-3.9464,-3.9547,-3.9548,-3.9549]},{"header":{"parameterUnit":"m.s-1","parameterCategory":1,"la1":30.2991,"la2":30.254,"lo1":-89.0895,"lo2":-89.0444,"dy":0.0017,"dx":0.0017,"nx":28,"ny":28,"refTime":"2025-04-30T03:00:00:Z","depth":0,"parameterNumber":3,"parameterNumberName":"V-component_of_WINDS"},"data":[0,0,0,0,0,0,0,0,0,0,0,0,0,0,0,0,0,0,0,0,0,0,0,0,0,0,0,0,0,0,0,0,0,0,0,0,0,0,0,0,0,0,0,0,0,0,0,0,0,0,0,0,0,0,0,0,0,0,4.7031,4.7031,0,4.7025,4.7025,4.7025,4.6976,4.6975,4.6974,4.6973,4.6968,4.6968,4.6969,0,0,0,0,0,0,0,0,0,0,0,0,0,4.6999,4.7,4.7031,4.7031,4.7031,4.7025,4.7025,4.7025,4.6977,4.6975,4.6974,4.6972,4.6967,4.6968,4.697,0,0,0,0,0,0,0,0,0,0,0,0,0,4.7005,4.7001,4.7031,4.7006,4.7003,4.7025,4.7025,4.7025,4.6977,4.6975,4.6973,4.6972,4.6967,4.6968,4.697,4.7015,0,0,4.6974,4.6975,0,0,0,0,0,0,0,0,4.7005,4.7007,4.7009,4.7007,4.7005,4.7,4.7012,4.7022,4.6977,4.6987,4.6973,4.6971,4.698,4.698,4.6983,4.7015,4.7015,4.6974,4.6975,4.6976,4.6976,0,0,0,0,0,0,0,4.7005,4.7007,4.7028,4.701,4.7007,4.6995,4.6994,4.7014,4.6994,4.6986,4.6982,4.6983,4.6978,4.6982,4.6982,4.7015,4.6974,4.6976,4.6977,4.6977,4.7084,4.7086,0,0,0,0,0,0,4.7008,4.7007,4.7029,4.7028,4.7001,4.6997,4.6996,4.7003,4.6993,4.699,4.6984,4.698,4.698,4.6981,4.6982,4.7035,4.6976,4.6977,4.6978,4.7082,4.7084,4.7086,0,0,0,0,0,0,4.7007,4.701,4.7029,4.7016,4.7018,4.6999,4.7008,4.7004,4.7007,4.6992,4.6988,4.6991,4.6979,4.698,4.7007,4.7034,4.6978,4.6979,4.7079,4.7083,4.7085,4.714,0,0,0,0,0,0,4.7007,4.701,4.7027,4.7017,4.7019,4.7054,4.701,4.7005,4.701,4.7005,4.6998,4.6995,4.6977,4.7005,4.7009,4.7035,4.698,4.7077,4.7081,4.7084,4.7136,4.7144,4.7152,0,0,0,0,0,4.7006,4.7043,4.7028,4.7031,4.704,4.7056,4.7057,4.7036,4.7012,4.7029,4.7019,4.6995,4.703,4.7009,4.7012,4.7039,4.7075,4.708,4.7084,4.7132,4.7143,4.7152,0,0,0,0,0,0,4.7056,4.7041,4.7025,4.706,4.706,4.7047,4.7068,4.7048,4.7054,4.7049,4.7023,4.7022,4.7053,4.7049,4.7025,4.7082,4.7049,4.7054,4.7084,4.7094,4.7102,4.7102,4.6982,0,0,0,0,0,4.7072,4.7086,4.7072,4.7104,4.7105,4.7087,4.7093,4.7077,4.7076,4.7075,4.7067,4.7067,4.7078,4.7086,4.7095,4.7135,4.7133,4.7155,4.7163,4.717,4.7175,4.7196,4.7206,4.7101,4.7101,4.7101,0,0,4.7103,4.7097,4.7107,4.7114,4.7112,4.7128,4.7087,4.7105,4.7116,4.7078,4.7103,4.7098,4.7096,4.7129,4.7144,4.7127,4.7203,4.7176,4.7181,4.7182,4.7201,4.7211,4.722,4.7104,4.7103,4.7103,0,0,4.7168,4.7165,4.7191,4.719,4.7188,4.7176,4.7182,4.7173,4.7168,4.7193,4.7165,4.7178,4.7198,4.7198,4.72,4.7267,4.7244,4.727,4.7312,4.7333,4.7341,4.7348,4.7372,4.7381,4.7275,4.7275,4.7275,0,4.7208,4.723,4.7208,4.7228,4.7232,4.7198,4.7225,4.7225,4.7226,4.7229,4.721,4.7234,4.7231,4.7264,4.728,4.7284,4.729,4.7271,4.7342,4.7349,4.7355,4.7377,4.7386,4.7278,4.7278,4.7278,4.7278,0,4.7279,4.7295,4.7316,4.7318,4.7325,4.7348,4.7329,4.7339,4.7323,4.7313,4.7339,4.7334,4.7341,4.7348,4.7333,4.738,4.7369,4.7346,4.7312,4.7369,4.7389,4.7397,4.7283,4.7282,4.7281,4.728,0,0,4.7375,4.7364,4.7373,4.7373,4.7368,4.738,4.7402,4.741,4.7419,4.7421,4.7438,4.7456,4.7435,4.7438,4.7423,4.7441,4.7494,4.7416,4.7415,4.743,4.7545,4.7562,4.7572,4.7479,4.7481,4.7482,4.7545,0,4.7437,4.7474,4.7455,4.7495,4.7509,4.7478,4.7498,4.7497,4.7489,4.75,4.749,4.7503,4.7475,4.7476,4.7493,4.7484,4.7516,4.7479,4.7496,4.7496,4.7497,4.7583,4.7601,4.766,4.7553,4.7554,4.7555,0,4.7515,4.7521,4.7562,4.7554,4.756,4.7578,4.7583,4.7594,4.7593,4.7586,4.759,4.757,4.7591,4.7558,4.7587,4.7562,4.7568,4.7564,4.7566,4.7566,4.7529,4.7585,4.7679,4.7688,4.7568,4.7567,4.7566,0,4.7581,4.7599,4.7625,4.7627,4.7619,4.7632,4.763,4.7627,4.7633,4.7638,4.7642,4.7649,4.7653,4.766,4.7643,4.762,4.7675,4.764,4.7669,4.7669,4.7681,4.7681,4.7777,4.7686,4.7686,4.7686,4.7686,0,4.7653,4.7679,4.7655,4.7671,4.77,4.7678,4.7707,4.7701,4.7699,4.7714,4.7688,4.7702,4.7679,4.7691,4.7678,4.7705,4.7707,4.7701,4.7697,4.7703,4.7704,4.7706,4.7702,4.7688,4.7688,4.7687,4.7687,0,4.7731,4.7716,4.7743,4.7734,4.7732,4.7753,4.7745,4.776,4.7751,4.777,4.7773,4.7758,4.7771,4.7755,4.7766,4.7758,4.7793,4.7783,4.7794,4.7791,4.7821,4.7818,4.7922,4.7934,4.7836,4.7837,4.7837,0,4.7777,4.7797,4.779,4.7798,4.7797,4.781,4.7816,4.7796,4.7803,4.7804,4.7819,4.783,4.7838,4.786,4.785,4.7859,4.7849,4.7885,4.785,4.7856,4.7849,4.7848,4.785,4.7892,4.7893,4.7894,4.7895,0,4.7861,4.7853,4.7863,4.787,4.7878,4.7883,4.7886,4.7894,4.7873,4.7883,4.7896,4.7902,4.7914,4.7926,4.7932,4.7929,4.7909,4.7906,4.7913,4.7919,4.7924,4.7921,4.7812,4.7903,4.7902,4.7902,4.7901,4.7901,4.7925,4.7941,4.7938,4.795,4.795,4.7954,4.7967,4.796,4.797,4.7978,4.7966,4.7983,4.7981,4.7988,4.7988,4.8,4.7985,4.7996,4.7998,4.8001,4.8005,4.7923,4.8002,4.8001,4.8001,4.8001,4.8001,0,4.8007,4.8004,4.8016,4.8021,4.803,4.801,4.8012,4.8022,4.8037,4.8037,4.8045,4.8061,4.8072,4.8063,4.8072,4.8084,4.8075,4.8087,4.8086,4.8086,4.8019,4.8011,4.8095,4.8095,4.8095,4.8095,4.8095,4.8095,4.8051,4.8077,4.8069,4.8095,4.8092,4.8108,4.8111,4.8114,4.8114,4.8133,4.8142,4.8136,4.8133,4.8142,4.8151,4.8148,4.8153,4.8169,4.8162,4.81,4.809,4.8082,4.8075,4.817,4.817,4.8228,4.8229,4.8229]}]]